Regional Weather Roundup
Issued by NWS Little Rock, AR

Home | Current Version | Previous Version | Text Only | Print | Product List | Glossary On
Versions: 1 2 3 4 5 6 7 8 9 10 11 12 13 14 15 16 17 18 19 20 21 22 23 24 25 26 27
000
ASUS44 KLZK 300905
RWRLZK

WEATHER ROUNDUP FOR ARKANSAS
NATIONAL WEATHER SERVICE LITTLE ROCK AR
400 AM CDT SAT JUL 30 2016

NOTE: "FAIR" INDICATES FEW OR NO CLOUDS BELOW 12,000 FEET WITH NO
SIGNIFICANT WEATHER AND/OR OBSTRUCTIONS TO VISIBILITY.

ARZ001-003-010-029-301000-
NORTHWEST ARKANSAS

CITY           SKY/WX    TMP DP  RH WIND       PRES   REMARKS
FAYETTEVILLE   CLEAR     70  70 100 CALM      30.01R
FORT SMITH     PTCLDY    73  69  87 CALM      29.97R
HARRISON       CLEAR     68  68 100 CALM      30.00S FOG
BENTONVILLE    CLEAR     72  66  83 SW5       30.01S
ROGERS         PTCLDY    72  70  93 SW3       30.01S
SILOAM SPGS    CLEAR     70  61  73 CALM      30.01S
HIGHFILL       CLEAR     71  70  96 W3        30.00S
$$

ARZ004-005-016-301000-
NORTH CENTRAL ARKANSAS

CITY           SKY/WX    TMP DP  RH WIND       PRES   REMARKS
BATESVILLE     MOCLDY    70  68  94 CALM      29.96S
FLIPPIN        CLOUDY    72  66  83 CALM      29.95S VSB<1/4
MTN HOME       FOG       69  69 100 CALM      29.97F VSB 1/2
$$

ARZ040-041-301000-
WEST CENTRAL ARKANSAS

CITY           SKY/WX    TMP DP  RH WIND       PRES   REMARKS
MENA             N/A    N/A N/A N/A MISG        N/A
MOUNT IDA      PTCLDY    70  70 100 CALM      29.96S FOG
$$

ARZ009-017-025-026-028-301000-
NORTHEAST ARKANSAS

CITY           SKY/WX    TMP DP  RH WIND       PRES   REMARKS
CORNING          N/A     72  72 100 W3        29.95F
JONESBORO      CLOUDY    71  70  96 SW3       29.95F
NEWPORT        FOG       71  71 100 CALM      29.96F VSB 1/2
WALNUT RIDGE   CLEAR     70  68  94 CALM      29.94S
BLYTHEVILLE    MOCLDY    72  71  97 CALM      29.95F
$$

ARZ022-023-033-042-044-301000-
CENTRAL ARKANSAS

CITY           SKY/WX    TMP DP  RH WIND       PRES   REMARKS
LITTLE ROCK    MOCLDY    75  71  87 SW5       29.95S
N LITTLE ROCK    N/A     73  72  96 CALM      29.93S
JACKSONVILLE   MOCLDY    73  73 100 SW1       29.94F
SEARCY         CLOUDY    72  72 100 CALM      30.08S FOG
HOT SPRINGS    CLEAR     72  70  93 CALM      29.97F
RUSSELLVILLE   PTCLDY    72  72 100 CALM      29.95S FOG
$$

ARZ036-301000-
EAST ARKANSAS

CITY           SKY/WX    TMP DP  RH WIND       PRES   REMARKS
WEST MEMPHIS   LGT RAIN  71  70  96 CALM      29.95S
$$

ARZ050-053-066-070-073-301000-
SOUTHWEST ARKANSAS

CITY           SKY/WX    TMP DP  RH WIND       PRES   REMARKS
ARKADELPHIA    CLOUDY    71  70  96 CALM      29.97S
CAMDEN         CLOUDY    72  68  88 CALM      29.97R FOG
TEXARKANA      CLOUDY    72  70  93 CALM      29.98S
EL DORADO      MOCLDY    73  72  96 CALM      29.98R
DE QUEEN       CLEAR     70  69  97 CALM      29.96F
$$

ARZ056-057-069-301000-
SOUTHEAST ARKANSAS

CITY           SKY/WX    TMP DP  RH WIND       PRES   REMARKS
PINE BLUFF     MOCLDY    73  71  93 S3        29.95F
STUTTGART      CLOUDY    75  70  83 CALM      29.95S
MONTICELLO     CLOUDY    75  72  90 W3        29.97R

$$






USA.gov is the U.S. government's official web portal to all federal, state and local government web resources and services.